Regional Weather Roundup
Issued by NWS

Home | Current Version | Previous Version | Graphics & Text | Print | Product List | Glossary On
Versions: 1 2 3 4 5 6 7 8 9 10 11 12 13 14 15 16 17 18 19 20 21 22 23 24 25 26 27 28 29 30 31 32 33 34 35 36 37 38 39 40 41 42 43 44 45 46 47 48 49 50
000
ASUS43 KLOT 011006
RWRIL

ILLINOIS REGIONAL WEATHER ROUNDUP
NATIONAL WEATHER SERVICE CHICAGO/ROMEOVILLE IL
500 AM CDT WED OCT 01 2014

NOTE: "FAIR" INDICATES FEW OR NO CLOUDS BELOW 12,000 FEET WITH NO
SIGNIFICANT WEATHER AND/OR OBSTRUCTIONS TO VISIBILITY.

* THESE STATIONS ARE NOT UNDER NWS QUALITY CONTROL. THEY ALSO MAY NOT
  REPORT WEATHER SUCH AS PRECIPITATION OR FOG.

ILZ001-002-007-009-015-016-024-011100-
NORTHWEST ILLINOIS

CITY           SKY/WX    TMP DP  RH WIND       PRES   REMARKS
MOLINE         NOT AVBL
SAVANNA*       PTCLDY    48  45  89 E5        29.97S
$$

ILZ003-004-008-010-011-017-018-011100-
NORTH CENTRAL ILLINOIS

CITY           SKY/WX    TMP DP  RH WIND       PRES   REMARKS
ROCKFORD       PTCLDY    50  47  89 E6        30.01R
FREEPORT*      CLEAR     45  44  97 E3        30.00R
ROCHELLE*      CLEAR     47  46  93 SE6       29.99S
DE KALB*       CLEAR     47  44  89 SE6       30.00S
PERU*          CLEAR     51  47  85 E8        29.98F
$$

ILZ005-006-012>014-019>023-011100-
NORTHEAST ILLINOIS

CITY           SKY/WX    TMP DP  RH WIND       PRES   REMARKS
CHICAGO-OHARE  MOCLDY    54  46  74 SE13      30.00S
CHICAGO-MIDWAY PTCLDY    53  46  77 SE7       30.00S
AURORA         CLEAR     48  43  82 E3        30.00S
LANSING*       CLEAR     44  44  99 E3        30.01S
JOLIET*        CLEAR     46  44  91 CALM      29.99F
WAUKEGAN       NOT AVBL
DUPAGE AIRPORT CLEAR     50  44  80 SE5       29.99S
KANKAKEE*      CLEAR     44  43  96 E6        30.01S
WHEELING       CLOUDY    57  47  69 SE9       30.01F
MORRIS*        CLEAR     47  46  97 E5        29.99S
ROMEOVILLE*    CLEAR     46  45  95 E7        30.00F
NORTHERLY ISL    N/A     56  47  71 SE10        N/A
$$

LMZ740>746-011100-
SOUTHERN LAKE MICHIGAN

STATION/POSITION SKY/WX   TEMP    WIND        PRES    VSBY  WAVE
                          AIR SEA DIR/SP/G                  HT/PER
                          (F)     (DEG/KT/KT) (MB)    (MI)  (FT/S)
SOUTHERN BUOY              57 62  140/ 10/ 12 1016.6R         2/ 5
WAUKEGAN HARBOR            56     160/ 14/ 16   N/A
HARRISON CRIB              56     150/ 12/ 15   N/A
BURNHAM HARBOR             56     120/ 11/ 12   N/A
CALUMET HARBOR             56     120/  6/ 10 1014.9F
MICHIGAN CITY              53      70/  4/  4   N/A
MICHIGAN CITY 6N           56 64  130/  6/ 10   N/A           2/ 2
ST. JOSEPH                 55 62  130/  8/ 12   N/A           2/ 2
$$

ILZ025>027-034>036-040-047-049-050-058-095>099-011100-
WEST-CENTRAL ILLINOIS

CITY           SKY/WX    TMP DP  RH WIND       PRES   REMARKS
QUINCY         CLEAR     56  52  86 SE10      29.88S
GALESBURG*     PTCLDY    50  47  88 E9        29.93F
MACOMB*        MOCLDY    51  49  92 SE7       29.95S
JACKSONVILLE*  CLEAR     55  51  88 E6        29.93S FOG
PITTSFIELD*    CLEAR     56  53  89 E6        29.91F
$$

ILZ028>032-037-038-041>044-048-051>054-059>061-011100-
CENTRAL ILLINOIS

CITY           SKY/WX    TMP DP  RH WIND       PRES   REMARKS
PONTIAC        CLEAR     48  46  93 E5        29.98S
DECATUR        CLEAR     50  48  93 E7        29.96S
PEORIA         MOCLDY    54  46  74 E7        29.96R
LACON*         CLEAR     48  45  87 CALM      29.96F
LINCOLN*       MOCLDY    53  49  86 E6        29.94S
SPRINGFIELD    CLEAR     53  49  86 E8        29.94S
TAYLORVILLE    CLEAR     52  48  87 E6        29.94S
$$

ILZ033-039-045-046-055>057-062-063-011100-
EAST-CENTRAL ILLINOIS

CITY           SKY/WX    TMP DP  RH WIND       PRES   REMARKS
CHAMPAIGN      PTCLDY    49  47  93 E7        29.97S
DANVILLE*      CLEAR     47  46  96 E5        29.96S
RANTOUL*       CLEAR     49  46  87 E6        29.98S
MATTOON        CLEAR     51  49  92 E6        29.95S
PARIS*         CLEAR     50  49  97 CALM      29.98S
$$

ILZ079-100>102-011100-
SOUTHWEST ILLINOIS

CITY           SKY/WX    TMP DP  RH WIND       PRES   REMARKS
ALTON          CLEAR     57  55  92 E3        29.93R
BELLEVILLE     CLEAR     58  58  99 CALM      29.91S FOG
CAHOKIA*       CLEAR     63  59  87 SE3       29.91R
SPARTA*        CLEAR     62  59  90 SE6       29.92R FOG
$$

ILZ064>066-069>071-074>076-080>082-084>086-088>090-092>094-011100-
SOUTH-CENTRAL ILLINOIS

CITY           SKY/WX    TMP DP  RH WIND       PRES   REMARKS
CARBONDALE     FOG       54  52  93 CALM      29.91S VSB 1/4
CAIRO*         FOG       58  56  92 CALM      29.90S VSB 1/4
EFFINGHAM*     HVY RAIN  55  50  84 E5        29.94S
MARION         PTCLDY    61  59  94 CALM      29.92S FOG
CENTRALIA*     CLEAR     57  55  91 CALM      29.93R
SALEM*         CLEAR     59  57  92 E3        29.93S
METROPOLIS*    CLEAR     55  55 100 CALM      29.91R FOG
$$

ILZ067-068-072-073-078-083-087-091-011100-
SOUTHEAST ILLINOIS

CITY           SKY/WX    TMP DP  RH WIND       PRES   REMARKS
LAWRENCEVILLE  CLEAR     56  53  90 NE6       29.96R
FLORA*         CLEAR     55  53  94 CALM      29.94S
FAIRFIELD*     CLEAR     57  55  94 CALM      29.93F
HARRISBURG*    PTCLDY    61  61 100 E3        29.93S FOG
ROBINSON*      CLEAR     55  53  95 E5        29.97R
CARMI*           N/A     57  56  99 CALM      29.93S FOG
$$

ABBREVIATIONS USED IN REMARKS
   TC - TEMPERATURE IN CELSIUS
  WCI - WIND CHILL INDEX
   HX - HEAT INDEX
  VSB - VISIBILITY
$$



USA.gov is the U.S. government's official web portal to all federal, state and local government web resources and services.